Last updated on March 15, 2020, 12:02 a.m. UTC
1 45342U 20016B 20074.04062960 .26379275 12457-4 13357-2 0 9992 2 45342 51.6397 96.6770 0018945 82.8389 278.1173 16.40707414 1106
Satellite is not in orbit.